Home   Weather   Middlesbrough   Past weeks

Flag for United Kingdom Past Weather in Middlesbrough, England, United Kingdom — Yesterday and Last 2 Weeks

Now
57 °F

Passing clouds.


Feels Like: 54 °F
Forecast: 54 / 65 °F
Wind: 13 mph from South

Location: Tees-Side

Current Time: Sep 26, 2016 at 3:00:35 PM

Latest Report: Sep 26, 2016 at 2:20 PM


Visibility: N/A

Pressure: 30.07 "Hg

Humidity: 82%

Dew Point: 52 °F

Location of MiddlesbroughLocation

Past Weather in Middlesbrough — Graph

°F

Middlesbrough Temperature Yesterday

Maximum temperature yesterday: 63 °F (at 1:50 PM)
Minimum temperature yesterday: 50 °F (at 9:20 PM)
Average temperature yesterday: 57 °F

High & Low Weather Summary for the Past Weeks

 TemperatureHumidityPressure
High81 °F (Sep 13, 2:50 PM)100% (Sep 15, 9:50 AM)30.21 "Hg (Sep 15, 9:50 AM)
Low43 °F (Sep 18, 6:20 AM)49% (Sep 11, 1:50 PM)29.65 "Hg (Sep 25, 5:50 AM)
Average60 °F77%29.99 "Hg
* Reported Sep 11 1:20 PM — Sep 26 1:50 PM, Middlesbrough, Weather by CustomWeather, © 2016

Note: Actual official high and low records may vary slightly from our data, if they occured in-between our weather recording intervals... More about our weather records

Advertising

Middlesbrough Weather History for the Previous 24 Hours

Scroll right to see more
 ConditionsComfort  
Time TempWeatherWind HumidityBarometerVisibility
1:50 PM
Mon, Sep 26
55 °FLight rain. Scattered clouds.12 mph88%30.09 "HgN/A
1:20 PM57 °FLight rain. Passing clouds.14 mph77%30.09 "HgN/A
12:50 PM57 °FPassing clouds.12 mph77%30.09 "HgN/A
12:20 PM55 °FPassing clouds.10 mph82%30.09 "HgN/A
11:50 AM55 °FPassing clouds.10 mph77%30.09 "HgN/A
11:20 AM54 °FPassing clouds.9 mph82%30.09 "HgN/A
10:50 AM54 °FPassing clouds.9 mph82%30.09 "HgN/A
10:20 AM54 °FPassing clouds.10 mph82%30.09 "HgN/A
9:50 AM54 °FPassing clouds.9 mph82%30.09 "HgN/A
9:20 AM50 °FPassing clouds.7 mph88%30.09 "HgN/A
8:50 AM50 °FPassing clouds.5 mph88%30.09 "HgN/A
8:20 AM50 °FPassing clouds.3 mph88%30.07 "HgN/A
7:50 AM48 °FPassing clouds.2 mph87%30.07 "HgN/A
7:20 AM48 °FPassing clouds.7 mph87%30.07 "HgN/A
6:50 AM48 °FPassing clouds.9 mph87%30.07 "HgN/A
6:20 AM48 °FPassing clouds.13 mph87%30.07 "HgN/A
5:50 AM48 °FPassing clouds.9 mph87%30.07 "HgN/A
9:50 PM
Sun, Sep 25
52 °FPassing clouds.8 mph77%29.98 "HgN/A
9:20 PM50 °FPassing clouds.10 mph82%29.98 "HgN/A
8:50 PM52 °FPassing clouds.7 mph77%29.95 "HgN/A
8:20 PM52 °FPassing clouds.3 mph72%29.95 "HgN/A
7:50 PM52 °FScattered showers. Passing clouds.9 mph77%29.95 "HgN/A
7:20 PM54 °FSprinkles. Passing clouds.17 mph77%29.95 "HgN/A
6:50 PM57 °FPassing clouds.13 mph63%29.92 "HgN/A
6:20 PM57 °FPassing clouds.13 mph63%29.89 "HgN/A
5:50 PM59 °FPassing clouds.17 mph59%29.89 "HgN/A
5:20 PM59 °FPassing clouds.16 mph59%29.89 "HgN/A
4:50 PM61 °FScattered clouds.21 mph59%29.86 "HgN/A
4:20 PM61 °FPassing clouds.17 mph59%29.86 "HgN/A
3:50 PM61 °FPassing clouds.21 mph55%29.83 "HgN/A
3:20 PM63 °FPassing clouds.17 mph56%29.83 "HgN/A
Weather by CustomWeather, © 2016

See weather overviewHow to use our weather pages